www.pogodaiklimat.ru

Погода и климат >> Архив погоды >> Буркина-Фасо >> Dedougou


ПОГОДА в Dedougou

  • Прогноз погоды в Dedougou
  • Монитор погоды в Dedougou
  • Климат города

АРХИВ ПОГОДЫ в Dedougou

Время (UTC), дата Ветер
(напр.,м/с)
 
Видим.   Явления Облачность Т
(С)
Тd
(С)
f
(%)
Тe
(С)
Тes
(С)
Комфортность P
(гПа)
Po
(гПа)
Тmin
(С)
Tmax
(С)
R
(мм)
R24
(мм)
S
(см)
06 17.05 Ю 3 15 км слабый дождь {гроза} 9/0
[Ac As Ci sp]
+21.9 +21.2 96 +28 +28 душно 1009.9 976.7 +20.0 31
09 17.05 ЮВ 1 15 км {дождь} 9/0
[Ac As Ci sp]
+24.0 +19.6 76 +29 +34 душно 1010.0 976.8
12 17.05 штиль 0 15 км {дождь} 9/0
[Ac As Ci sp]
+26.0 +20.8 73 +33 +43 очень
душно
1009.1 976.0
15 17.05 В 1 15 км 9/0
[Ac trans Ci sp]
+29.0 +21.7 65 +37 +47 очень
душно
1008.5 974.9
18 17.05 штиль 0 15 км 9/0
[Ac As Ci sp]
+29.0 +23.3 71 +39 +39 очень
душно
1007.5 973.9 +30.0 0.9
21 17.05 штиль 0 10 км 9/0
[Ci sp]
+27.5 +25.4 88 +40 +40 очень
душно
1009.0 975.4
00 18.05 штиль 0 10 км 9/0
[Ci sp]
+26.3 +24.5 90 +37 +37 очень
душно
1008.8 975.3
03 18.05 штиль 0 10 км 9/0
[Ci sp]
+25.1 +23.5 91 +34 +34 очень
душно
1007.8 974.4
06 18.05 Ю 1 15 км 9/0
[Ac trans Ci sp]
+24.9 +23.5 92 +34 +34 очень
душно
1008.9 975.5 +24.9 0.9
09 18.05 ЮЗ 2 15 км 9/0
[Ci sp]
+29.0 +20.7 61 +36 +44 очень
душно
1010.5 977.1
12 18.05 ЮЗ 3 15 км 9/0
[Ac trans Ci sp]
+32.0 +20.7 51 +39 +53 опасность
солнечного
удара
1009.5 976.3
15 18.05 З 3 15 км 9/1 600 м
[Sc Ci sp]
+33.6 +22.8 53 +43 +51 опасность
перегрева
1006.9 973.8
18 18.05 З 2 15 км 9/1 600 м
[Cu Sc Ac trans Ci sp]
+32.7 +23.2 57 +43 +43 опасность
перегрева
1006.3 973.1 +34.4
21 18.05 ЮВ 4 10 км зарница 9/1 600 м
[Cb cap Ac As Ci sp]
+29.5 +22.4 66 +39 +39 очень
душно
1009.5 976.3
00 19.05 Ю 4 10 км зарница {метель} 9/1 1200 м
[Cb cap Ac trans Ci sp]
+25.1 +22.0 83 +32 +32 очень
душно
1010.8 977.5
03 19.05 ЮЗ 3 10 км в посл. час дождь 9/0
[Ac As Ci sp]
+24.5 +22.3 88 +32 +32 очень
душно
1008.8 975.6
06 19.05 Ю 2 15 км {дождь} 9/0
[Ac As Ci sp]
+24.5 +21.7 84 +31 +31 очень
душно
1010.3 976.9 +24.4 0.1
09 19.05 ЮЗ 2 15 км 9/0
[Ac As Ci sp]
+27.1 +21.0 69 +34 +38 очень
душно
1011.4 978.0
12 19.05 Ю 2 15 км 9/0
[Ac trans Ci sp]
+31.2 +20.3 52 +38 +51 опасность
солнечного
удара
1011.3 977.9
15 19.05 ЮЗ 2 15 км 9/3 600 м
[Cu Sc Ac trans Ci sp]
+34.6 +23.2 52 +45 +50 опасность
перегрева
1008.4 975.3
18 19.05 З 1 15 км 9/4 600 м
[Cu Sc Ac trans Ci sp]
+34.0 +21.8 49 +42 +43 опасность
перегрева
1007.8 974.6 +35.5
21 19.05 В 2 8000 м гроза, ливневой дождь 10/1 1200 м
[Cb cap Ac As]
+24.2 +22.3 89 +31 +31 очень
душно
1012.7 979.0
00 20.05 Ю 2 10 км {гроза, дождь} 9/0
[Ac As]
+25.0 +23.6 92 +34 +34 очень
душно
1011.8 978.4 6
03 20.05 штиль 0 10 км 9/0
[Ac As Ci sp]
+24.9 +23.8 94 +34 +34 очень
душно
1009.8 976.6
06 20.05 В 1 15 км 9/0
[Ac trans Ci sp]
+25.1 +24.0 94 +35 +35 очень
душно
1011.3 978.1 +23.0 6
09 20.05 В 1 15 км 9/0
[Ac trans Ci sp]
+28.0 +24.3 80 +39 +47 очень
душно
1013.0 979.3
12 20.05 В 1 15 км 9/1 600 м
[Cu Sc Ac trans Ci sp]
+32.3 +24.5 64 +45 +58 опасность
перегрева
1012.3 978.9
15 20.05 З 1 15 км 9/3 600 м
[Cu Sc Ac trans Ci sp]
+34.3 +23.6 54 +45 +51 опасность
перегрева
1009.8 976.6
18 20.05 штиль 0 15 км 9/1 600 м
[Sc Ci sp]
+34.0 +23.3 54 +45 +45 опасность
перегрева
1008.9 975.7 +35.5
21 20.05 штиль 0 10 км зарница 9/1 1200 м
[Cb cap Ci sp]
+31.2 +26.0 74 +47 +47 опасность
перегрева
1011.0 977.7
00 21.05 Ю 2 10 км зарница 9/1 1200 м
[Cb cap Ci sp]
+30.1 +24.5 72 +42 +42 опасность
перегрева
1011.4 978.3
03 21.05 ЮЗ 3 10 км 9/0
[Ac trans Ci sp]
+26.6 +21.3 73 +34 +34 очень
душно
1010.8 977.6
06 21.05 штиль 0 15 км 9/0
[Ci sp]
+24.8 +21.6 82 +32 +32 очень
душно
1011.0 977.7 +24.6
09 21.05 З 1 15 км 9/0
[Ci sp]
+28.0 +22.2 71 +37 +46 очень
душно
1011.4 978.2
12 21.05 З 1 15 км 9/0
[Ci sp]
+33.6 +22.8 53 +43 +64 опасность
перегрева
1010.7 977.7
15 21.05 Ю 1 15 км 9/0
[Ci sp]
+36.5 +21.6 42 +44 +56 опасность
перегрева
1007.5 974.6
18 21.05 Ю 1 15 км 9/0
[Ci sp]
+35.6 +21.9 45 +44 +44 опасность
перегрева
1007.2 974.1 +37.5
21 21.05 Ю 2 15 км 9/0
[Ci sp]
+32.5 +24.1 61 +44 +44 опасность
перегрева
1008.4 975.3
00 22.05 ЮЗ 3 10 км 9/0
[Ci sp]
+31.0 +24.0 66 +43 +43 опасность
перегрева
1008.6 975.8
03 22.05 ЮЗ 2 10 км 9/0
[Ci sp]
+29.5 +24.3 74 +41 +41 опасность
перегрева
1007.6 974.9
06 22.05 ЮЗ 2 15 км 9/0
[Ci sp]
+28.4 +24.3 78 +40 +40 очень
душно
1008.3 975.4 +28.4
09 22.05 ЮЗ 3 15 км 9/0
[Ci sp]
+31.2 +24.3 67 +43 +50 опасность
перегрева
1009.9 976.9
12 22.05 ЮЗ 2 15 км 9/0
[Ci sp]
+35.7 +24.1 51 +47 +65 опасность
перегрева
1008.2 975.5
15 22.05 ЮЗ 3 15 км 9/1 600 м
[Cu Sc Ci sp]
+37.5 +23.5 45 +48 +56 опасность
перегрева
1006.1 973.4
18 22.05 ЮЗ 2 15 км 9/0
[Ci sp]
+36.1 +22.3 45 +45 +45 опасность
перегрева
1005.3 972.5 +38.1
21 22.05 ЮЗ 2 10 км 9/0
[Ci sp]
+33.0 +24.7 62 +46 +46 опасность
перегрева
1006.5 973.7
00 23.05 ЮЗ 4 10 км 9/0
[Ci sp]
+31.4 +23.8 64 +43 +43 опасность
перегрева
1007.0 974.3
03 23.05 ЮЗ 3 10 км 9/0
[Ci sp]
+30.0 +23.6 69 +41 +41 опасность
перегрева
1006.3 973.6
06 23.05 ЮЗ 2 15 км 9/0
[Ci sp]
+28.6 +23.8 75 +39 +39 очень
душно
1007.6 974.8 +28.6
09 23.05 ЮЗ 4 15 км 9/0
[Ci sp]
+31.6 +23.4 62 +42 +48 опасность
перегрева
1009.0 976.1
12 23.05 ЮЗ 3 15 км 9/0
[Ci sp]
+35.0 +23.0 50 +45 +60 опасность
перегрева
1008.7 975.9
15 23.05 Ю 1 15 км 9/0
[Ci sp]
+36.5 +23.1 46 +46 +59 опасность
перегрева
1006.7 974.0
18 23.05 Ю 3 15 км 9/0
[Ci sp]
+35.7 +22.7 47 +45 +45 опасность
перегрева
1005.6 972.8 +37.5
21 23.05 ЮЗ 2 10 км 9/0
[Ci sp]
+33.0 +23.9 59 +45 +45 опасность
перегрева
1007.5 974.7
00 24.05 ЮЗ 3 10 км 9/0
[Ci sp]
+31.6 +23.7 63 +43 +43 опасность
перегрева
1008.2 975.4
03 24.05 Ю 3 10 км 9/0
[Ci sp]
+30.0 +21.2 59 +38 +38 очень
душно
1007.4 974.7

 

Местоположение метеостанции Dedougou (Буркина-Фасо): широта 12.47 долгота -3.48 высота над уровнем моря 300 м.

В архиве по умолчанию представлена погода в Dedougou за последнюю неделю. Архивные данные за месяц целиком и за предыдущие месяцы, начиная с января 2011 года, Вы можете получить, выбрав интересующий диапазон дат из раскрывающегося списка и нажав кнопку "Ввод!".

Внимание! Время в таблицах - всемирное. Для получения местного времени необходимо прибавить поправку, которая в Dedougou равна 0 ч.

Смотрите также архив погоды в соседних городах и на ближайших метеорологических станциях:

Погода в Boromo (Буркина-Фасо) (100 км)
Погода в Ouahigouya (Буркина-Фасо) (168 км)
Погода в Bobo-Dioulasso (Буркина-Фасо) (171 км)
Погода в San (Мали) (175 км)
Погода в Ouagadougou (Буркина-Фасо) (213 км)
Погода в Koutiala (Мали) (216 км)
Погода в Mopti (Мали) (238 км)
Погода в Gaoua (Буркина-Фасо) (240 км)
Погода в Sikasso (Мали) (270 км)
Погода в Wa (Гана) (290 км)

Пояснения к столбцам:

Ветер - указаны скорость ветра в м/с - средняя за 10 мин, порывы в срок и между сроками (в фигурных скобках) и направление, откуда дует ветер: С - северный, СВ - северо-восточный, В - восточный, ЮВ - юго-восточный, Ю - южный, ЮЗ - юго-западный, З - западный, СЗ - северо-западный.
Видимость - горизонтальная дальность видимости в метрах или километрах. При видимости от 1 до 10 км при отсутствии осадков обычно наблюдается дымка, при ухудшении видимости до 1 км и менее - туман. В сухую погоду видимость может ухудшаться дымом, пылью или мглою.
Явления - указаны атмосферные явления, наблюдавшиеся в срок или в последний час перед сроком; фигурными скобками обозначены явления, наблюдавшиеся между сроками (за 1-3 часа до срока); квадратными скобками обозначены град или гололедные отложения с указанием их диаметра в мм.
Облачность - указаны через наклонную черту общая и нижняя облачность в баллах и высота нижней границы облаков в метрах; квадратными скобками обозначены формы облаков: Ci - перистые, Cs - перисто-слоистые, Cc - перисто-кучевые, Ac - высококучевые, As - высокослоистые, Sc - слоисто-кучевые, Ns - слоисто-дождевые, Cu - кучевые, Cb - кучево-дождевые. Подробнее классификацию облаков см. в Атласе облаков (PDF).
T - Температура воздуха - температура, измеренная на высоте 2 м над землей.
Td - Температура точки росы - температура, при понижении до которой содержащийся в воздухе водяной пар достигнет насыщения.
f - Относительная влажность воздуха - влажноcть воздуха, измеренная на высоте 2 м над землей.
Te - Эффективная температура - температура, которую ощущает одетый по сезону человек в тени. Характеристика душности погоды. При расчете учитывается влияние влажности воздуха и скорости ветра на теплоощущения человека.
Tes - Эффективная температура на солнце - температура, которую ощущает человек, с поправкой на солнечный нагрев. Характеристика знойности погоды. Зависит от высоты солнца над горизонтом, облачности и скорости ветра. Ночью, в пасмурную погоду, а также при ветре 12 м/с и более поправка равна нулю.
P - Атмосферное давление - приведенное к уровню моря атмосферное давление.
Po - Атмосферное давление - измеренное на уровне метеостанции атмосферное давление.
Tmin - Минимальная температура - минимум температуры воздуха на высоте 2 м над землей.
Tmax - Максимальная температура - максимум температуры воздуха на высоте 2 м над землей.
R - Количество осадков - Количество выпавших осадков за период времени, мм. При наведении курсора мыши на число - период времени, за который выпало указанное количество осадков.
R24 - Количество осадков - Количество выпавших осадков за 24 часа, мм.
S - Снежный покров - Высота снежного покрова, см. При наведении курсора мыши на число - состояние снежного покрова и степень покрытия местности в баллах.